To NAV CANADA Home Page Login to a new session Search on AWWS site Feedback and Comments Disclaimer Vers la page française équivalente Tips FAQ What's new on the site To the Forecasts and Observations / NOTAM section To "File a Flight Plan" website Publications and other links Update of the User's profile FIC Telephone Numbers My Weather Data Folder Route Weather Data Regional Weather Data Local Weather Data To the Forecasts and Observations / NOTAM section
Request Generated 08/03/2015 at 02:35:14 UTC . Weather information available at that time is displayed.

METAR/TAF

HOPE/BC    (show WxCam)

METAR CYHE 030200Z AUTO 30010G20KT 260V350 9SM CLR 29/13 A2982 RMK
SLP097 DENSITY ALT 1900FT=
METAR CYHE 030100Z AUTO 30012G21KT 270V350 9SM CLR 30/13 A2981 RMK
SLP095 DENSITY ALT 2000FT=
METAR CYHE 030000Z AUTO 29010G23KT 9SM CLR 31/14 A2982 RMK SLP098
DENSITY ALT 2000FT=

CYHE - No TAF is issued for this station

Your time UTC time
Weather data provided by Environment Canada and NAV CANADA